When you browse on this site, cookies collect data to enhance your experience and personalize the content and advertising you see.
Visit our Privacy Policy to learn more. By continuing to use the site, you agree to this use of cookies and data.
  • In Latvia
  • List of Countries
  • For 7 days
  • Water Temperature
  • Weather Map
  • Weather Widgets
  • user-avatar
    Login

    Hourly Weather Lankaran

    Today, 23 August, Friday

    Time Temperature Precipitation Wind Pressure Humidity
    00:00 +16°C° 0 mm 1 mps 633 mmHg 40%
    01:00 +16°C° 0 mm 1 mps 633 mmHg 40%
    02:00 +16°C° 0 mm 1 mps 633 mmHg 41%
    03:00 +16°C° 0 mm 1 mps 633 mmHg 42%
    04:00 +16°C° 0 mm 1 mps 633 mmHg 42%
    05:00 +18°C° 0 mm 1 mps 633 mmHg 42%
    06:00 +18°C° 0 mm 1 mps 634 mmHg 43%
    07:00 +20°C° 0 mm 2 mps 635 mmHg 37%
    08:00 +22°C° 0 mm 3 mps 636 mmHg 32%
    09:00 +26°C° 0 mm 4 mps 637 mmHg 28%
    10:00 +27°C° 0 mm 4 mps 637 mmHg 29%
    11:00 +28°C° 0 mm 5 mps 637 mmHg 29%
    12:00 +29°C° 0 mm 5 mps 637 mmHg 29%
    13:00 +29°C° 0 mm 5 mps 636 mmHg 29%
    14:00 +29°C° 0 mm 5 mps 636 mmHg 30%
    15:00 +28°C° 0 mm 5 mps 636 mmHg 31%
    16:00 +26°C° 0 mm 4 mps 635 mmHg 36%
    17:00 +24°C° 0 mm 3 mps 634 mmHg 42%
    18:00 +22°C° 0 mm 3 mps 633 mmHg 47%
    19:00 +20°C° 0 mm 2 mps 633 mmHg 47%
    20:00 +19°C° 0 mm 2 mps 633 mmHg 47%
    21:00 +19°C° 0 mm 1 mps 633 mmHg 47%
    22:00 +19°C° 0 mm 1 mps 633 mmHg 45%
    23:00 +19°C° 0 mm 1 mps 633 mmHg 43%

    Tomorrow, 24 August, Saturday

    Time Temperature Precipitation Wind Pressure Humidity
    00:00 +19°C° 0 mm 1 mps 633 mmHg 41%
    01:00 +18°C° 0 mm 1 mps 633 mmHg 41%
    02:00 +18°C° 0 mm 1 mps 633 mmHg 41%
    03:00 +18°C° 0 mm 1 mps 633 mmHg 41%
    04:00 +18°C° 0 mm 1 mps 633 mmHg 39%
    05:00 +19°C° 0 mm 1 mps 634 mmHg 36%
    06:00 +20°C° 0 mm 1 mps 634 mmHg 33%
    07:00 +21°C° 0 mm 2 mps 635 mmHg 30%
    08:00 +25°C° 0 mm 3 mps 636 mmHg 27%
    09:00 +28°C° 0 mm 4 mps 637 mmHg 24%
    10:00 +29°C° 0 mm 4 mps 637 mmHg 23%
    11:00 +29°C° 0 mm 5 mps 637 mmHg 23%
    12:00 +30°C° 0 mm 5 mps 637 mmHg 23%
    13:00 +30°C° 0 mm 6 mps 636 mmHg 23%
    14:00 +29°C° 0 mm 6 mps 636 mmHg 23%
    15:00 +29°C° 0 mm 6 mps 635 mmHg 23%
    16:00 +27°C° 0 mm 5 mps 635 mmHg 26%
    17:00 +25°C° 0 mm 4 mps 634 mmHg 29%
    18:00 +22°C° 0 mm 3 mps 634 mmHg 32%
    19:00 +21°C° 0 mm 3 mps 634 mmHg 32%
    20:00 +20°C° 0 mm 2 mps 634 mmHg 31%
    21:00 +18°C° 0 mm 2 mps 634 mmHg 31%
    22:00 +19°C° 0 mm 1 mps 634 mmHg 31%
    23:00 +19°C° 0 mm 1 mps 634 mmHg 31%

    Day after tomorrow, 25 August, Sunday

    Time Temperature Precipitation Wind Pressure Humidity
    00:00 +18°C° 0 mm 1 mps 633 mmHg 32%
    01:00 +18°C° 0 mm 1 mps 633 mmHg 33%
    02:00 +16°C° 0 mm 1 mps 633 mmHg 35%
    03:00 +16°C° 0 mm 1 mps 633 mmHg 37%
    04:00 +16°C° 0 mm 1 mps 633 mmHg 37%
    05:00 +18°C° 0 mm 1 mps 633 mmHg 36%
    06:00 +18°C° 0 mm 1 mps 634 mmHg 36%
    07:00 +21°C° 0 mm 1 mps 635 mmHg 32%
    08:00 +23°C° 0 mm 2 mps 636 mmHg 27%
    09:00 +26°C° 0 mm 2 mps 637 mmHg 22%
    10:00 +27°C° 0 mm 3 mps 637 mmHg 22%
    11:00 +28°C° 0 mm 3 mps 636 mmHg 22%
    12:00 +28°C° 0 mm 4 mps 636 mmHg 22%
    13:00 +28°C° 0 mm 4 mps 636 mmHg 23%
    14:00 +28°C° 0 mm 4 mps 636 mmHg 24%
    15:00 +28°C° 0 mm 4 mps 636 mmHg 25%
    16:00 +26°C° 0 mm 4 mps 635 mmHg 29%
    17:00 +24°C° 0 mm 3 mps 634 mmHg 33%
    18:00 +21°C° 0 mm 2 mps 634 mmHg 38%
    19:00 +19°C° 0 mm 2 mps 634 mmHg 39%
    20:00 +19°C° 0 mm 1 mps 634 mmHg 40%
    21:00 +16°C° 0 mm 1 mps 633 mmHg 41%
    22:00 +16°C° 0 mm 1 mps 633 mmHg 39%
    23:00 +16°C° 0 mm 1 mps 634 mmHg 38%

    26 August, Monday

    Time Temperature Precipitation Wind Pressure Humidity
    00:00 +16°C° 0 mm 1 mps 634 mmHg 36%
    01:00 +14°C° 0 mm 0 mps 633 mmHg 38%
    02:00 +14°C° 0 mm 0 mps 633 mmHg 39%
    03:00 +13°C° 0 mm 0 mps 633 mmHg 40%
    04:00 +14°C° 0 mm 0 mps 634 mmHg 39%
    05:00 +15°C° 0 mm 0 mps 634 mmHg 38%
    06:00 +16°C° 0 mm 1 mps 634 mmHg 37%
    07:00 +20°C° 0 mm 1 mps 635 mmHg 33%
    08:00 +21°C° 0 mm 2 mps 636 mmHg 29%
    09:00 +24°C° 0 mm 3 mps 637 mmHg 25%
    10:00 +25°C° 0 mm 3 mps 638 mmHg 24%
    11:00 +26°C° 0 mm 4 mps 638 mmHg 23%
    12:00 +27°C° 0 mm 4 mps 638 mmHg 22%
    13:00 +26°C° 0 mm 4 mps 638 mmHg 22%
    14:00 +26°C° 0 mm 4 mps 637 mmHg 22%
    15:00 +25°C° 0 mm 4 mps 637 mmHg 23%
    16:00 +22°C° 0 mm 4 mps 636 mmHg 26%
    17:00 +20°C° 0 mm 3 mps 636 mmHg 29%
    18:00 +18°C° 0 mm 3 mps 635 mmHg 33%
    19:00 +17°C° 0 mm 3 mps 635 mmHg 36%
    20:00 +15°C° 0 mm 2 mps 635 mmHg 39%
    21:00 +14°C° 0 mm 2 mps 635 mmHg 42%
    22:00 +14°C° 0 mm 2 mps 635 mmHg 47%
    23:00 +13°C° 0 mm 2 mps 635 mmHg 53%

    27 August, Tuesday

    Time Temperature Precipitation Wind Pressure Humidity
    00:00 +13°C° 0 mm 2 mps 635 mmHg 58%
    01:00 +13°C° 0 mm 1 mps 635 mmHg 60%
    02:00 +13°C° 0 mm 1 mps 635 mmHg 62%
    03:00 +12°C° 0 mm 1 mps 635 mmHg 64%
    04:00 +13°C° 0 mm 1 mps 636 mmHg 62%
    05:00 +14°C° 0 mm 1 mps 636 mmHg 61%
    06:00 +14°C° 0 mm 1 mps 636 mmHg 60%
    07:00 +16°C° 0 mm 1 mps 637 mmHg 53%
    08:00 +19°C° 0 mm 2 mps 637 mmHg 45%
    09:00 +21°C° 0 mm 3 mps 638 mmHg 38%
    10:00 +22°C° 0 mm 3 mps 637 mmHg 37%
    11:00 +24°C° 0 mm 3 mps 637 mmHg 37%
    12:00 +25°C° 0 mm 4 mps 637 mmHg 36%
    13:00 +25°C° 0 mm 4 mps 637 mmHg 39%
    14:00 +25°C° 0 mm 4 mps 636 mmHg 42%
    15:00 +25°C° 0 mm 4 mps 635 mmHg 44%
    16:00 +22°C° 0 mm 3 mps 634 mmHg 51%
    17:00 +20°C° 0 mm 2 mps 634 mmHg 57%
    18:00 +19°C° 0 mm 1 mps 633 mmHg 64%
    19:00 +19°C° 0.1 mm 1 mps 633 mmHg 64%
    20:00 +18°C° 0.1 mm 1 mps 633 mmHg 65%
    21:00 +18°C° 0.1 mm 1 mps 633 mmHg 66%
    22:00 +18°C° 0 mm 1 mps 633 mmHg 64%
    23:00 +18°C° 0 mm 1 mps 633 mmHg 63%

    28 August, Wednesday

    Time Temperature Precipitation Wind Pressure Humidity
    00:00 +18°C° 0 mm 1 mps 633 mmHg 61%
    01:00 +18°C° 0 mm 1 mps 633 mmHg 64%
    02:00 +16°C° 0 mm 1 mps 632 mmHg 66%
    03:00 +15°C° 0 mm 1 mps 632 mmHg 68%
    04:00 +16°C° 0 mm 1 mps 632 mmHg 67%
    05:00 +16°C° 0 mm 1 mps 633 mmHg 66%
    06:00 +15°C° 0 mm 0 mps 633 mmHg 64%
    07:00 +20°C° 0 mm 1 mps 634 mmHg 58%
    08:00 +21°C° 0 mm 2 mps 634 mmHg 51%
    09:00 +24°C° 0 mm 2 mps 635 mmHg 44%
    10:00 +25°C° 0 mm 3 mps 635 mmHg 45%
    11:00 +25°C° 0 mm 4 mps 635 mmHg 45%
    12:00 +26°C° 0 mm 4 mps 635 mmHg 46%
    13:00 +25°C° 0 mm 4 mps 635 mmHg 46%
    14:00 +23°C° 0 mm 4 mps 634 mmHg 47%
    15:00 +23°C° 0 mm 4 mps 634 mmHg 48%
    16:00 +21°C° 0 mm 3 mps 634 mmHg 53%
    17:00 +19°C° 0 mm 3 mps 633 mmHg 57%
    18:00 +18°C° 0 mm 2 mps 633 mmHg 62%
    19:00 +17°C° 0 mm 2 mps 633 mmHg 63%
    20:00 +15°C° 0 mm 1 mps 633 mmHg 64%
    21:00 +14°C° 0 mm 1 mps 633 mmHg 66%
    22:00 +14°C° 0 mm 1 mps 633 mmHg 63%
    23:00 +13°C° 0 mm 0 mps 633 mmHg 60%
    Show more